[[{"header":{"parameterUnit":"m.s-1","parameterCategory":1,"la1":30.2992,"la2":30.254,"lo1":-89.0895,"lo2":-89.0443,"dy":0.0025,"dx":0.0025,"nx":19,"ny":19,"refTime":"2026-04-12T09:00:00:Z","depth":0,"parameterNumber":2,"parameterNumberName":"U-component_of_WINDS"},"data":[0,0,0,-1.8561,-1.8563,-1.8661,-1.8661,-1.8792,-1.8793,0,0,0,0,0,0,0,0,0,0,0,-1.8534,-1.8535,-1.8561,-1.8563,-1.8661,-1.8661,-1.8791,-1.8793,0,0,0,0,0,0,0,0,0,0,0,-1.8533,-1.8534,-1.8536,-1.8564,-1.8661,-1.8661,-1.8791,-1.8716,0,0,0,0,0,0,0,0,0,0,-1.862,-1.8596,-1.8534,-1.8536,-1.8564,-1.8661,-1.8661,-1.8712,-1.8721,-1.8749,0,-1.8773,0,-1.8785,-1.8802,-1.8802,0,0,0,-1.8563,-1.8589,-1.8614,-1.8536,-1.8565,-1.8661,-1.8617,-1.8717,-1.8726,-1.876,-1.8775,-1.878,-1.8787,-1.8803,-1.8803,-1.8966,-1.8967,0,0,-1.8557,-1.8553,-1.8607,-1.862,-1.8603,-1.8614,-1.862,-1.8723,-1.8739,-1.8776,-1.8783,-1.8789,-1.8804,-1.8805,-1.8966,-1.8967,0,0,0,-1.8542,-1.8549,-1.8571,-1.8615,-1.8632,-1.8616,-1.8624,-1.8735,-1.8742,-1.8784,-1.8791,-1.8804,-1.8806,-1.8965,-1.8966,-1.9,0,0,0,-1.8539,-1.854,-1.8569,-1.8567,-1.863,-1.8684,-1.8633,-1.8735,-1.8747,-1.879,-1.8804,-1.8807,-1.8964,-1.8965,-1.8997,-1.9017,0,0,0,-1.8527,-1.8539,-1.8553,-1.8566,-1.8608,-1.8683,-1.8696,-1.8738,-1.8751,-1.8802,-1.8808,-1.8963,-1.8965,-1.8995,-1.9013,-1.9059,0,0,0,-1.8513,-1.8583,-1.8553,-1.8634,-1.8607,-1.8702,-1.8695,-1.8767,-1.8815,-1.8805,-1.8964,-1.8966,-1.8994,-1.9011,-1.9056,-1.9097,-1.9113,0,0,-1.8598,-1.8593,-1.864,-1.8617,-1.8716,-1.8688,-1.8793,-1.8842,-1.8852,-1.8928,-1.8932,-1.8998,-1.9013,-1.9058,-1.9205,-1.9218,0,0,0,-1.8666,-1.87,-1.8727,-1.8772,-1.8811,-1.8846,-1.8879,-1.8898,-1.8962,-1.889,-1.9027,-1.9036,-1.9063,-1.9083,-1.9094,-1.9118,-1.8974,-1.8974,-1.8974,-1.878,-1.8788,-1.8868,-1.8888,-1.8932,-1.8965,-1.9002,-1.9033,-1.9029,-1.9062,-1.9085,-1.9172,-1.9195,-1.9203,-1.9228,-1.9106,-1.9106,-1.9107,-1.9107,-1.8906,-1.8956,-1.8949,-1.9023,-1.9032,-1.9096,-1.9132,-1.9127,-1.9188,-1.9156,-1.918,-1.9144,-1.9217,-1.9239,-1.9109,-1.9109,-1.9109,-1.9108,-1.9108,-1.8983,-1.9008,-1.9028,-1.9094,-1.9144,-1.9163,-1.9222,-1.9228,-1.9234,-1.9258,-1.9283,-1.9283,-1.9284,-1.9269,-1.927,-1.927,-1.927,-1.9271,-1.9271,-1.9054,-1.9076,-1.9124,-1.917,-1.92,-1.924,-1.9275,-1.9305,-1.934,-1.934,-1.9341,-1.9334,-1.9222,-1.9194,-1.9276,-1.9275,-1.9274,-1.9274,-1.9273,-1.918,-1.9152,-1.9227,-1.9256,-1.9312,-1.9362,-1.9368,-1.9429,-1.9455,-1.9485,-1.9473,-1.9389,-1.9384,-1.9376,-1.9353,-1.947,-1.947,-1.947,-1.947,-1.9245,-1.9243,-1.932,-1.9367,-1.9414,-1.9428,-1.9514,-1.9542,-1.9567,-1.9584,-1.9568,-1.9538,-1.9529,-1.9529,-1.9518,-1.9496,-1.9648,-1.9648,-1.9648,-1.9324,-1.9326,-1.9397,-1.9419,-1.9463,-1.9501,-1.9582,-1.9638,-1.9661,-1.9655,-1.9598,-1.959,-1.9542,-1.9525,-1.9518,-1.9499,-1.946,0,0]},{"header":{"parameterUnit":"m.s-1","parameterCategory":1,"la1":30.2992,"la2":30.254,"lo1":-89.0895,"lo2":-89.0443,"dy":0.0025,"dx":0.0025,"nx":19,"ny":19,"refTime":"2026-04-12T09:00:00:Z","depth":0,"parameterNumber":3,"parameterNumberName":"V-component_of_WINDS"},"data":[0,0,0,4.7739,4.7741,4.7819,4.7819,4.7927,4.7928,0,0,0,0,0,0,0,0,0,0,0,4.7724,4.7725,4.7739,4.7741,4.7819,4.7819,4.7927,4.7928,0,0,0,0,0,0,0,0,0,0,0,4.7724,4.7725,4.7726,4.7742,4.7819,4.7819,4.7927,4.7864,0,0,0,0,0,0,0,0,0,0,4.7787,4.7782,4.7725,4.7726,4.7742,4.7819,4.7819,4.7861,4.7868,4.7897,0,4.7927,0,4.793,4.7936,4.7937,0,0,0,4.7734,4.7776,4.779,4.7727,4.7743,4.7819,4.7782,4.7865,4.7873,4.7906,4.7928,4.7932,4.7931,4.7937,4.7938,4.8131,4.8132,0,0,4.773,4.7742,4.7785,4.7796,4.7788,4.7779,4.7784,4.787,4.7893,4.7929,4.7934,4.7933,4.7938,4.7939,4.813,4.8131,0,0,0,4.7722,4.7739,4.7751,4.7792,4.7805,4.7782,4.7787,4.7889,4.7892,4.7935,4.7934,4.7939,4.794,4.8128,4.813,4.8203,0,0,0,4.7719,4.7735,4.7749,4.7757,4.7804,4.7849,4.7806,4.7886,4.7896,4.7934,4.7939,4.7941,4.8127,4.8129,4.8198,4.8235,0,0,0,4.7716,4.7734,4.7749,4.7758,4.7792,4.7847,4.7855,4.7888,4.7896,4.7937,4.7942,4.8126,4.8129,4.8194,4.8228,4.8289,0,0,0,4.7716,4.7812,4.775,4.7856,4.7792,4.7893,4.7854,4.7928,4.7972,4.7939,4.8127,4.813,4.8192,4.8223,4.8285,4.8343,4.8369,0,0,4.7843,4.7828,4.7889,4.7836,4.7952,4.788,4.8005,4.8033,4.8024,4.8095,4.81,4.82,4.8227,4.8288,4.8509,4.853,0,0,0,4.7933,4.7978,4.8006,4.805,4.8075,4.8098,4.8106,4.8116,4.8176,4.8064,4.8238,4.8254,4.829,4.8317,4.8334,4.8363,4.8143,4.8143,4.8143,4.8131,4.8116,4.8217,4.8212,4.8254,4.8261,4.8294,4.8308,4.828,4.8321,4.8342,4.8478,4.851,4.8523,4.8554,4.8372,4.8372,4.8372,4.8373,4.8315,4.8375,4.8337,4.842,4.8404,4.8472,4.8482,4.846,4.852,4.8461,4.8491,4.8428,4.8547,4.8572,4.8378,4.8377,4.8376,4.8376,4.8375,4.8442,4.8469,4.8481,4.8542,4.859,4.8581,4.8641,4.8623,4.8606,4.8636,4.8655,4.8654,4.865,4.8647,4.8647,4.8648,4.8648,4.8648,4.8649,4.857,4.8581,4.8635,4.8669,4.8694,4.8725,4.8733,4.8756,4.8777,4.8759,4.8759,4.8726,4.8562,4.852,4.8656,4.8655,4.8654,4.8653,4.8652,4.8762,4.8715,4.8799,4.8825,4.8862,4.8911,4.8888,4.8937,4.8953,4.8983,4.8944,4.8825,4.8807,4.8793,4.8758,4.8947,4.8947,4.8947,4.8948,4.8869,4.8858,4.8939,4.8981,4.9019,4.9007,4.9099,4.9105,4.9103,4.9112,4.9082,4.9035,4.9022,4.9011,4.8992,4.896,4.9196,4.9196,4.9196,4.8985,4.8978,4.9061,4.9061,4.9089,4.9113,4.9198,4.9246,4.9234,4.9206,4.9118,4.9108,4.9032,4.9008,4.8977,4.8949,4.8889,0,0]}]]